Orbital Elements at Epoch 2459200.5 (2020-Dec-17.0) TDB
Reference: JPL 19 (heliocentric ecliptic J2000)
Element | Value | Uncertainty (1-sigma) | Units |
e | .1573533014556549 | 3.7637e-08 | |
a | 2.605135053059724 | 1.8966e-08 | au |
q | 2.195208451722924 | 1.0423e-07 | au |
i | 12.73837670151383 | 4.0174e-06 | deg |
node | 112.2569749949348 | 2.5604e-05 | deg |
peri | 206.7472228504212 | 3.2169e-05 | deg |
M | 324.7201882511686 | 2.2596e-05 | deg |
tp | 2459351.010760092876 (2021-May-16.51076009) | 9.7004e-05 | TDB |
period | 1535.832277654656 4.20 | 1.6772e-05 4.592e-08 | d yr |
n | .2344005951937343 | 2.5597e-09 | deg/d |
Q | 3.015061654396525 | 2.195e-08 | au |
|
| | Orbit Determination Parameters
Additional Information
|